Location: Slanting_Bridge
(35.6330°N, 80.9830°W)
Time: 13:54:43
(UTC-05:00)

Hamsat - Visible Passes

Search period start: 21 November 2014 00:00
Search period end: 01 December 2014 00:00
Orbit: 592 x 627 km, 97.6° (Epoch: 20 November)

Date Brightness Start Highest point End Pass type
(mag) Time Alt. Az. Time Alt. Az. Time Alt. Az.
21 Nov ? 05:24:20 10° NE 05:27:54 25° E 05:31:28 10° SSE visible
21 Nov ? 17:49:45 10° S 17:53:45 46° W 17:57:49 10° NNW visible
22 Nov ? 05:38:04 10° NNE 05:42:05 36° E 05:46:04 10° SSE visible
22 Nov ? 18:04:11 10° SSW 18:07:54 31° W 18:11:39 10° NW visible
23 Nov ? 05:51:57 10° NNE 05:56:13 54° E 06:00:27 10° S visible
23 Nov ? 18:18:52 10° SW 18:22:04 21° W 18:25:18 10° NW visible
24 Nov ? 06:05:57 10° NNE 06:10:18 81° ESE 06:14:39 10° S visible
24 Nov ? 18:33:55 10° SW 18:36:15 15° W 18:38:35 10° WNW visible
25 Nov ? 06:20:02 10° N 06:24:22 68° WNW 06:28:41 10° SSW visible
26 Nov ? 05:00:16 10° ENE 05:02:16 13° E 05:04:15 10° ESE visible
26 Nov ? 06:34:14 10° N 06:38:23 46° WNW 06:42:32 10° SSW visible
27 Nov ? 05:13:20 10° NE 05:16:26 19° E 05:19:31 10° SE visible
27 Nov ? 17:38:07 10° S 17:42:15 64° W 17:46:28 10° NNW visible
28 Nov ? 05:26:50 10° NE 05:30:34 27° E 05:34:16 10° SSE visible
28 Nov ? 17:52:21 10° S 17:56:19 42° W 18:00:21 10° NNW visible
29 Nov ? 05:40:33 10° NNE 05:44:39 40° E 05:48:44 10° SSE visible
29 Nov ? 18:06:46 10° SSW 18:10:24 28° W 18:14:05 10° NW visible
30 Nov ? 05:54:24 10° NNE 05:58:43 60° E 06:03:00 10° S visible
30 Nov ? 18:21:26 10° SW 18:24:30 20° W 18:27:36 10° NW visible
